Location: Sebastopol
(38.4021°N, 122.8239°W)
Time: 15:31:53
(UTC+00:00)

Cosmos 2278 - Pass Details

Date: 29 October 2020
Orbit: 841 x 851 km, 71.1° (Epoch: 01 December)

Event Time Altitude Azimuth Distance (km) Brightness Sun altitude
Exits shadow 13:23:47 - 331° (NNW) 3,151 6.3 -14.5°
Reaches altitude 10° 13:25:37 10° 328° (NNW) 2,465 5.8 -14.2°
Maximum altitude 13:31:05 53° 253° (WSW) 1,023 3.8 -13.1°
Drops below altitude 10° 13:36:32 10° 177° (S) 2,450 6.3 -12.0°
Sets 13:39:01 0° 173° (S) 3,381 7.0 -11.6°
